Regional Weather Roundup
Issued by NWS Little Rock, AR

Home | Current Version | Previous Version | Graphics & Text | Print | Product List | Glossary On
Versions: 1 2 3 4 5 6 7 8 9 10 11 12 13 14 15 16 17 18 19 20 21 22 23 24 25 26 27 28 29 30 31 32 33 34 35 36 37 38 39 40 41 42 43 44 45 46 47 48 49 50
031
ASUS44 KLZK 291305
RWRLZK

WEATHER ROUNDUP FOR ARKANSAS
NATIONAL WEATHER SERVICE LITTLE ROCK AR
800 AM CDT MON MAY 29 2017

NOTE: "FAIR" INDICATES FEW OR NO CLOUDS BELOW 12,000 FEET WITH NO
SIGNIFICANT WEATHER AND/OR OBSTRUCTIONS TO VISIBILITY.

ARZ001-003-010-029-291400-
NORTHWEST ARKANSAS

CITY           SKY/WX    TMP DP  RH WIND       PRES   REMARKS
FAYETTEVILLE   SUNNY     59  58  96 CALM      30.03S
FORT SMITH     MOSUNNY   66  60  81 SW3       30.01S
HARRISON       SUNNY     68  57  68 W7        30.02R
BENTONVILLE    SUNNY     63  55  77 SW3       30.04R
ROGERS         SUNNY     65  58  78 SW7       30.04R
SILOAM SPGS    SUNNY     63  55  77 S3        30.03S
HIGHFILL       SUNNY     63  60  90 SW3       30.04R
SPRINGDALE     SUNNY     63  57  82 CALM      30.05R
$$

ARZ004-005-016-291400-
NORTH CENTRAL ARKANSAS

CITY           SKY/WX    TMP DP  RH WIND       PRES   REMARKS
BATESVILLE     CLOUDY    64  59  82 CALM      30.00S
FLIPPIN        SUNNY     63  55  77 CALM      29.99R
MTN HOME       SUNNY     64  60  87 CALM      30.00R
$$

ARZ040-041-291400-
WEST CENTRAL ARKANSAS

CITY           SKY/WX    TMP DP  RH WIND       PRES   REMARKS
MENA           MOSUNNY   63  63 100 CALM      30.04R
MOUNT IDA      MOSUNNY   63  61  93 W3        30.00R
$$

ARZ009-017-025-026-028-291400-
NORTHEAST ARKANSAS

CITY           SKY/WX    TMP DP  RH WIND       PRES   REMARKS
JONESBORO      SUNNY     70  63  78 CALM      29.98S
NEWPORT        SUNNY     69  60  73 CALM      29.99S
WALNUT RIDGE   MOSUNNY   66  57  72 S3        29.99S
BLYTHEVILLE    MOSUNNY   71  67  87 N3        29.98R
$$

ARZ022-023-033-042-044-291400-
CENTRAL ARKANSAS

CITY           SKY/WX    TMP DP  RH WIND       PRES   REMARKS
LITTLE ROCK    PTSUNNY   69  64  84 N3        30.00R
N LITTLE ROCK    N/A     68  62  81 NW6       29.99S
JACKSONVILLE   MOSUNNY   68  63  84 NW5       29.99S
CONWAY           N/A     68  64  88 W5        29.99S
SEARCY         CLOUDY    67  64  90 NW5       30.01S
HOT SPRINGS    MOSUNNY   68  64  87 CALM      30.00R
RUSSELLVILLE   SUNNY     66  61  84 N3        30.00S
CLINTON        FAIR      61  57  88 CALM      30.01F
$$

ARZ036-291400-
EAST ARKANSAS

CITY           SKY/WX    TMP DP  RH WIND       PRES   REMARKS
WEST MEMPHIS   MOSUNNY   72  71  97 W3        29.96R
$$

ARZ050-053-066-070-073-291400-
SOUTHWEST ARKANSAS

CITY           SKY/WX    TMP DP  RH WIND       PRES   REMARKS
ARKADELPHIA    FAIR      70  67  90 CALM      30.01R
CAMDEN         PTSUNNY   70  66  88 CALM      29.99R
TEXARKANA      CLOUDY    68  68 100 NE6       30.00R
EL DORADO      CLOUDY    68  66  93 NW6       30.00R
DE QUEEN       MOSUNNY   67  64  90 CALM      29.99R
$$

ARZ056-057-069-291400-
SOUTHEAST ARKANSAS

CITY           SKY/WX    TMP DP  RH WIND       PRES   REMARKS
PINE BLUFF     HVY RAIN  70  64  81 N7        29.98R
STUTTGART      PTSUNNY   70  55  60 N8        29.98F
MONTICELLO     PTSUNNY   69  67  93 W5        29.97R

$$






USA.gov is the U.S. government's official web portal to all federal, state and local government web resources and services.